Regional Weather Roundup
Issued by NWS

Home | Current Version | Previous Version | Graphics & Text | Print | Product List | Glossary On
Versions: 1 2 3 4 5 6 7 8 9 10 11 12 13 14 15 16 17 18 19 20 21 22 23 24 25 26 27 28 29 30 31 32 33 34 35 36 37 38 39 40 41 42 43 44 45 46 47 48 49 50
000
ASUS43 KDMX 260403
RWRIA

WEATHER ROUNDUP FOR IOWA
NATIONAL WEATHER SERVICE DES MOINES IA
1100 PM CDT MON JUL 25 2016

NOTE: "FAIR" INDICATES FEW OR NO CLOUDS BELOW 12,000 FEET WITH NO
SIGNIFICANT WEATHER AND/OR OBSTRUCTIONS TO VISIBILITY.

* - THESE STATIONS ARE NOT NWS STATIONS...THUS NOT UNDER NWS
QUALITY CONTROL.  THEY ALSO DO NOT REPORT WEATHER SUCH
AS PRECIPITATION OR FOG.

IAZ001>003-012>014-020>022-031>034-043>046-260500-
   NORTHWEST IOWA

CITY           SKY/WX    TMP DP  RH WIND       PRES   REMARKS
CARROLL *        N/A     68  66  94 CALM      30.10R
CHEROKEE *     CLEAR     69  67  94 CALM      30.09S
DENISON *      CLEAR     68  66  94 E5        30.08S
LE MARS *      CLEAR     72  66  83 CALM      30.09R
SHELDON *      CLEAR     70  68  94 CALM      30.08R
SIOUX CITY     CLEAR     73  66  78 SE5       30.08R
SPENCER        CLEAR     68  66  93 S5        30.09R
STORM LAKE *   CLEAR     70  66  88 S6        30.11R
$$

IAZ055>058-069>071-079>083-090>094-260500-
   SOUTHWEST IOWA

CITY           SKY/WX    TMP DP  RH WIND       PRES   REMARKS
ATLANTIC *     CLEAR     66  64  94 CALM      30.10R
CLARINDA *       N/A     68  68 100 MISG      30.11S
COUNCIL BLFS *   N/A     73  68  83 SE5       30.10S
CRESTON *      CLEAR     70  64  83 CALM      30.11S
HARLAN  *      CLEAR     68  66  94 CALM      30.13S
LAMONI         CLEAR     70  65  84 CALM      30.09R
RED OAK *      CLEAR     70  66  88 CALM      30.10R
SHENANDOAH *     N/A     70  68  94 CALM      30.10R
$$

IAZ047>049-059>061-072>074-084-260500-
   CENTRAL IOWA

CITY           SKY/WX    TMP DP  RH WIND       PRES   REMARKS
AMES           CLEAR     66  66 100 CALM      30.09R
ANKENY *         N/A    N/A N/A N/A MISG        N/A
BOONE *          N/A     70  66  88 CALM      30.09R
CHARITON *       N/A    N/A N/A N/A MISG        N/A
DES MOINES     CLEAR     77  64  64 CALM      30.08R
GRINNELL*      CLEAR     68  64  84 CALM      30.09R
KNOXVILLE *    CLEAR     73  63  68 CALM      30.07R
MARSHALLTOWN   CLEAR     71  66  84 N5        30.07R
NEWTON *       CLEAR     68  66  94 CALM      30.08R
PELLA *        CLEAR     69  63  82 CALM      30.08R
PERRY *          N/A     69  68  97 CALM      30.09R
$$

IAZ004>006-015-016-023>025-035-036-260500-
   NORTH CENTRAL IOWA

CITY           SKY/WX    TMP DP  RH WIND       PRES   REMARKS
ALGONA *       CLEAR     70  66  88 S5        30.09R
ESTHERVILLE    CLEAR     69  66  90 S6        30.09R
FORT DODGE *   CLEAR     68  66  94 CALM      30.10S
MASON CITY     CLEAR     66  64  93 CALM      30.10R
FOREST CITY *    N/A     66  66 100 CALM      30.09R
IOWA FALLS *     N/A     68  64  88 CALM      30.10R
$$

IAZ007>011-017>019-026>030-037>042-050>054-066-260500-
   NORTHEAST IOWA

CITY           SKY/WX    TMP DP  RH WIND       PRES   REMARKS
CEDAR RAPIDS   CLEAR     69  66  90 CALM      30.05S
CHARLES CITY * CLEAR     66  66 100 NW3       30.09R
CLINTON *      CLEAR     69  67  93 N8        30.04S
DECORAH *      PTCLDY    68  64  88 CALM      30.07R
DUBUQUE        CLEAR     69  65  86 CALM      30.06S
MONTICELLO *   CLEAR     68  66  94 CALM      30.05S
OELWEIN *      CLEAR     70  66  88 N6        30.08R
WATERLOO       CLEAR     69  65  86 CALM      30.06R
$$

IAZ064-065-067-068-078-260500-
   EAST CENTRAL IOWA

CITY           SKY/WX    TMP DP  RH WIND       PRES   REMARKS
DAVENPORT      CLOUDY    68  65  90 NW3       30.05S
IOWA CITY      CLEAR     72  65  78 CALM      30.06R
MT. PLEASANT *   N/A     73  70  90 CALM      30.06R
MUSCATINE *    CLOUDY    72  66  83 CALM      30.04S
QUAD CITIES    CLOUDY    71  66  84 CALM      30.03S
$$

IAZ062-063-075>077-085>089-095>099-260500-
   SOUTHEAST IOWA

CITY           SKY/WX    TMP DP  RH WIND       PRES   REMARKS
BURLINGTON     CLOUDY    71  68  90 N3        30.04S
FAIRFIELD *    CLEAR     68  66  94 CALM      30.06R
KEOKUK *       PTCLDY    72  70  94 CALM      30.04S
CENTERVILLE *    N/A     66  64  94 CALM      30.09S
OTTUMWA        CLEAR     68  65  90 CALM      30.06S
WASHINGTON *   CLEAR     70  66  88 CALM      30.06S
$$

ABBREVIATIONS USED IN REMARKS
   TC - TEMPERATURES IN CELSIUS
  WCI - WIND CHILL INDEX
   HX - HEAT INDEX
  VSB - VISIBILITY
$$





USA.gov is the U.S. government's official web portal to all federal, state and local government web resources and services.